TimeAWST,TemperatureF,Dew PointF,Humidity,Sea Level PressureIn,VisibilityMPH,Wind Direction,Wind SpeedMPH,Gust SpeedMPH,PrecipitationIn,Events,Conditions,WindDirDegrees,DateUTC
12:00 AM,82,44,16,29.61,,ENE,10.4,,,,,60,2013-01-16 16:00:00
12:00 AM,82.4,42.8,25,29.62,-9999.0,ENE,10.4,-,N/A,,Unknown,60,2013-01-16 16:00:00
1:00 AM,80.6,42.8,26,29.59,-9999.0,NE,9.2,-,N/A,,Unknown,50,2013-01-16 17:00:00
2:00 AM,80,41,15,29.57,,ENE,9.2,,,,,60,2013-01-16 18:00:00
2:00 AM,80.6,41.0,24,29.59,-9999.0,ENE,9.2,-,N/A,,Unknown,60,2013-01-16 18:00:00
3:00 AM,78,42,18,29.57,,ENE,9.2,,,,,60,2013-01-16 19:00:00
3:00 AM,78.8,42.8,28,29.56,-9999.0,ENE,9.2,-,N/A,,Unknown,60,2013-01-16 19:00:00
4:00 AM,77.0,41.0,28,29.59,-9999.0,NE,5.8,-,N/A,,Unknown,40,2013-01-16 20:00:00
5:00 AM,76,42,19,29.60,,NNE,6.9,,,,,30,2013-01-16 21:00:00
5:00 AM,75.2,42.8,31,29.59,-9999.0,NNE,6.9,-,N/A,,Unknown,30,2013-01-16 21:00:00
6:00 AM,81,42,15,29.61,,NNE,8.1,,,,,30,2013-01-16 22:00:00
6:00 AM,80.6,42.8,26,29.62,-9999.0,NNE,8.1,-,N/A,,Unknown,30,2013-01-16 22:00:00
6:59 AM,89.6,35.6,15,29.62,-9999.0,North,10.4,-,N/A,,Unknown,360,2013-01-16 22:59:00
7:00 AM,89.6,37.4,16,29.62,-9999.0,North,10.4,-,N/A,,Unknown,360,2013-01-16 23:00:00
8:00 AM,99,30,4,29.62,,NNW,16.1,,,,,340,2013-01-17 00:00:00
8:00 AM,98.6,30.2,9,29.62,-9999.0,NNW,16.1,-,N/A,,Unknown,340,2013-01-17 00:00:00
8:26 AM,96.8,28.4,9,29.68,-9999.0,WNW,23.0,-,N/A,,Unknown,290,2013-01-17 00:26:00
8:27 AM,95.0,35.6,12,29.68,-9999.0,WNW,25.3,51.8,N/A,,Unknown,290,2013-01-17 00:27:00
8:28 AM,93.2,35.6,13,29.68,-9999.0,West,41.4,-,N/A,,Unknown,270,2013-01-17 00:28:00
8:29 AM,93.2,35.6,13,29.68,-9999.0,West,39.1,51.8,N/A,,Unknown,260,2013-01-17 00:29:00
8:35 AM,93.2,37.4,14,29.68,-9999.0,West,23.0,51.8,N/A,,Unknown,270,2013-01-17 00:35:00
8:38 AM,93.2,39.2,15,29.68,-9999.0,West,21.9,39.1,N/A,,Unknown,260,2013-01-17 00:38:00
9:00 AM,94,41,8,29.68,,WSW,18.4,,,,,250,2013-01-17 01:00:00
9:00 AM,93.2,41.0,16,29.68,-9999.0,WSW,18.4,-,N/A,,Unknown,250,2013-01-17 01:00:00
9:58 AM,95.0,46.4,19,29.65,-9999.0,SW,27.6,-,N/A,,Unknown,220,2013-01-17 01:58:00
10:00 AM,95.0,48.2,20,29.65,-9999.0,SW,27.6,-,N/A,,Unknown,220,2013-01-17 02:00:00
10:29 AM,96.8,57.2,27,29.65,-9999.0,SW,25.3,36.8,N/A,,Unknown,220,2013-01-17 02:29:00
10:44 AM,96.8,59.0,28,29.65,-9999.0,SSW,28.8,49.5,N/A,,Unknown,210,2013-01-17 02:44:00
11:00 AM,96,59,20,29.65,,SSW,29.9,,,,,200,2013-01-17 03:00:00
11:00 AM,95.0,59.0,30,29.65,-9999.0,SSW,29.9,41.4,N/A,,Unknown,200,2013-01-17 03:00:00
12:00 PM,94,62,25,29.65,,South,27.6,,,,,190,2013-01-17 04:00:00
12:00 PM,93.2,62.6,36,29.65,-9999.0,South,27.6,-,N/A,,Unknown,190,2013-01-17 04:00:00
12:26 PM,91.4,62.6,38,29.65,-9999.0,South,23.0,34.5,N/A,,Unknown,190,2013-01-17 04:26:00
1:00 PM,89.6,62.6,40,29.68,-9999.0,South,24.2,-,N/A,,Unknown,190,2013-01-17 05:00:00
2:00 PM,85,62,35,29.66,,South,23.0,,,,,170,2013-01-17 06:00:00
2:00 PM,84.2,60.8,45,29.68,-9999.0,South,23.0,-,N/A,,Unknown,170,2013-01-17 06:00:00
2:13 PM,84.2,60.8,45,29.68,-9999.0,South,21.9,33.4,N/A,,Unknown,180,2013-01-17 06:13:00
3:00 PM,82,61,38,29.68,,South,24.2,,,,,170,2013-01-17 07:00:00
3:00 PM,82.4,60.8,48,29.68,-9999.0,South,24.2,-,N/A,,Unknown,170,2013-01-17 07:00:00
3:50 PM,77.0,59.0,54,29.71,-9999.0,South,27.6,39.1,N/A,,Unknown,190,2013-01-17 07:50:00
4:00 PM,77.0,59.0,54,29.71,-9999.0,South,29.9,-,N/A,,Unknown,190,2013-01-17 08:00:00
4:05 PM,77.0,59.0,54,29.74,-9999.0,South,28.8,40.3,N/A,,Unknown,190,2013-01-17 08:05:00
5:00 PM,74,58,48,29.74,,South,25.3,,,,,180,2013-01-17 09:00:00
5:00 PM,75.2,59.0,57,29.74,-9999.0,South,25.3,-,N/A,,Unknown,180,2013-01-17 09:00:00
5:03 PM,73.4,59.0,61,29.74,-9999.0,South,25.3,36.8,N/A,,Unknown,180,2013-01-17 09:03:00
5:46 PM,73.4,57.2,57,29.80,-9999.0,South,26.5,-,N/A,,Unknown,190,2013-01-17 09:46:00
6:00 PM,72,58,51,29.81,,South,24.2,,,,,180,2013-01-17 10:00:00
6:00 PM,71.6,57.2,60,29.83,-9999.0,South,24.2,-,N/A,,Unknown,180,2013-01-17 10:00:00
7:00 PM,71.6,59.0,64,29.86,-9999.0,South,24.2,-,N/A,,Unknown,180,2013-01-17 11:00:00
7:02 PM,71.6,59.0,64,29.86,-9999.0,South,24.2,36.8,N/A,,Unknown,180,2013-01-17 11:02:00
8:00 PM,68,57,60,29.89,,South,25.3,,,,,180,2013-01-17 12:00:00
8:00 PM,68.0,57.2,68,29.89,-9999.0,South,25.3,36.8,N/A,,Unknown,180,2013-01-17 12:00:00
9:00 PM,68,53,49,29.91,,South,20.7,,,,,180,2013-01-17 13:00:00
9:00 PM,68.0,53.6,60,29.92,-9999.0,South,20.7,32.2,N/A,,Unknown,180,2013-01-17 13:00:00
10:00 PM,66.2,51.8,60,29.92,-9999.0,South,19.6,-,N/A,,Unknown,180,2013-01-17 14:00:00
11:00 PM,66,50,46,29.90,,South,20.7,,,,,180,2013-01-17 15:00:00
11:00 PM,66.2,50.0,56,29.92,-9999.0,South,20.7,-,N/A,,Unknown,180,2013-01-17 15:00:00